EW5962 Weather Reports


time (UTC)temp
C
wind
direction
speed
KPH
gust
KPH
rain 1hr
cm
rain 24hr
cm
rain mn
cm
humidity
%
barometer
mb
20260903233511 30 176 0.0 0.0 0.00 0.00 0.00 72 1013.2
20260903233103 30 176 0.0 0.0 0.00 0.00 0.00 73 1013.2
20260903232504 30 176 0.0 0.0 0.00 0.00 0.00 72 1013.2
20260903232008 30 176 0.0 0.0 0.00 0.00 0.00 70 1013.2
20260903231604 31 176 0.0 0.0 0.00 0.00 0.00 69 1013.2
20260903231005 31 176 0.0 0.0 0.00 0.00 0.00 69 1013.2
20260903230508 31 176 0.0 0.0 0.00 0.00 0.00 69 1013.1
20260903230109 31 176 0.0 0.0 0.00 0.00 0.00 68 1013.1
20260903225503 31 176 0.0 0.0 0.00 0.00 0.00 68 1013.1
20260903225008 31 176 0.0 0.0 0.00 0.00 0.00 66 1013.1
20260903224607 32 98 0.0 0.0 0.00 0.00 0.00 64 1013.0
20260903224003 32 98 0.0 0.0 0.00 0.00 0.00 64 1013.1
20260903223508 32 98 0.0 0.0 0.00 0.00 0.00 64 1013.1
20260903223102 32 98 0.0 1.6 0.00 0.00 0.00 61 1013.1
20260903222504 32 94 0.0 1.6 0.00 0.00 0.00 61 1013.0
20260903222009 32 150 0.0 1.6 0.00 0.00 0.00 57 1013.1
20260903221603 32 148 0.0 1.6 0.00 0.00 0.00 59 1013.2
20260903221004 32 203 0.0 0.0 0.00 0.00 0.00 60 1013.1
20260903220512 32 203 0.0 0.0 0.00 0.00 0.00 61 1013.2
20260903220108 32 203 0.0 0.0 0.00 0.00 0.00 61 1013.2
20260903215503 32 203 0.0 0.0 0.00 0.00 0.00 61 1013.2
20260903215009 33 203 0.0 1.6 0.00 0.00 0.00 62 1013.3
20260903214605 33 203 0.0 1.6 0.00 0.00 0.00 59 1013.3
20260903214002 33 203 0.0 1.6 0.00 0.00 0.00 56 1013.4
20260903213508 33 203 0.0 1.6 0.00 0.00 0.00 59 1013.3
20260903213102 34 203 0.0 1.6 0.00 0.00 0.00 55 1013.3
20260903212504 34 203 0.0 0.0 0.00 0.00 0.00 54 1013.3
20260903212010 34 203 0.0 0.0 0.00 0.00 0.00 55 1013.3
20260903211602 35 203 0.0 0.0 0.00 0.00 0.00 54 1013.3
20260903211002 35 203 0.0 0.0 0.00 0.00 0.00 52 1013.4
20260903210509 35 203 0.0 6.4 0.00 0.00 0.00 50 1013.4
20260903210104 35 203 0.0 6.4 0.00 0.00 0.00 50 1013.4
20260903205502 35 236 0.0 6.4 0.00 0.00 0.00 50 1013.4
20260903205009 35 204 0.0 1.6 0.00 0.00 0.00 59 1013.5
20260903204607 35 204 0.0 3.2 0.00 0.00 0.00 54 1013.5
20260903204003 35 213 0.0 0.0 0.00 0.00 0.00 59 1013.4
20260903203524 35 213 0.0 0.0 0.00 0.00 0.00 58 1013.5
20260903203102 35 229 0.0 0.0 0.00 0.00 0.00 57 1013.5
20260903202503 35 229 0.0 0.0 0.00 0.00 0.00 57 1013.5
20260903202105 35 206 0.0 0.0 0.00 0.00 0.00 52 1013.5
20260903201502 35 176 0.0 0.0 0.00 0.00 0.00 53 1013.7
20260903201008 36 140 0.0 1.6 0.00 0.00 0.00 52 1013.7
20260903200603 36 191 0.0 1.6 0.00 0.00 0.00 51 1013.7
20260903200004 36 243 0.0 3.2 0.00 0.00 0.00 50 1013.8
20260903195508 36 228 0.0 6.4 0.00 0.00 0.00 49 1013.9
20260903195103 36 191 0.0 6.4 0.00 0.00 0.00 49 1013.9
20260903194502 36 181 0.0 4.8 0.00 0.00 0.00 50 1014.1
20260903194008 36 162 0.0 0.0 0.00 0.00 0.00 50 1014.1
20260903193603 36 189 0.0 0.0 0.00 0.00 0.00 56 1014.1
20260903193002 36 191 0.0 0.0 0.00 0.00 0.00 49 1014.2
20260903192508 36 186 0.0 4.8 0.00 0.00 0.00 49 1014.2
20260903192102 36 186 0.0 4.8 0.00 0.00 0.00 47 1014.3
20260903191502 36 243 0.0 1.6 0.00 0.00 0.00 50 1014.2
20260903191009 36 156 0.0 1.6 0.00 0.00 0.00 46 1014.2
20260903190602 36 179 0.0 1.6 0.00 0.00 0.00 46 1014.3
20260903190002 37 182 0.0 3.2 0.00 0.00 0.00 47 1014.4
20260903185509 37 147 0.0 11.3 0.00 0.00 0.00 46 1014.4
20260903185102 37 200 0.0 11.3 0.00 0.00 0.00 44 1014.4
20260903184502 36 214 0.0 1.6 0.00 0.00 0.00 45 1014.5
20260903184010 36 234 0.0 0.0 0.00 0.00 0.00 51 1014.4
20260903183604 36 11 0.0 0.0 0.00 0.00 0.00 51 1014.5
20260903183003 36 184 0.0 4.8 0.00 0.00 0.00 48 1014.6
20260903182510 36 198 0.0 4.8 0.00 0.00 0.00 47 1014.7
20260903182102 36 241 0.0 3.2 0.00 0.00 0.00 48 1014.7
20260903181503 35 333 0.0 4.8 0.00 0.00 0.00 49 1014.8
20260903181011 35 8 0.0 6.4 0.00 0.00 0.00 50 1014.8
20260903180602 35 163 0.0 6.4 0.00 0.00 0.00 54 1014.9
20260903180007 35 112 0.0 0.0 0.00 0.00 0.00 57 1014.9
20260903175509 35 24 0.0 1.6 0.00 0.00 0.00 61 1014.9
20260903175103 34 16 0.0 1.6 0.00 0.00 0.00 58 1015.0
20260903174503 33 167 0.0 0.0 0.00 0.00 0.00 54 1015.0
20260903174009 34 152 0.0 0.0 0.00 0.00 0.00 54 1015.0
20260903173602 34 176 0.0 0.0 0.00 0.00 0.00 54 1015.1
20260903173002 35 176 0.0 0.0 0.00 0.00 0.00 54 1015.2
20260903172509 35 190 0.0 1.6 0.00 0.00 0.00 54 1015.2
20260903172102 35 192 0.0 1.6 0.00 0.00 0.00 55 1015.3
20260903171507 35 190 0.0 3.2 0.00 0.00 0.00 52 1015.3
20260903171010 35 215 0.0 8.0 0.00 0.00 0.00 53 1015.4
20260903170603 35 349 0.0 8.0 0.00 0.00 0.00 52 1015.4
20260903170003 35 213 0.0 0.0 0.00 0.00 0.00 52 1015.5
20260903165508 35 190 0.0 0.0 0.00 0.00 0.00 52 1015.6
20260903165102 35 193 0.0 0.0 0.00 0.00 0.00 52 1015.6
20260903164503 35 337 0.0 4.8 0.00 0.00 0.00 52 1015.7
20260903164008 35 347 0.0 4.8 0.00 0.00 0.00 52 1015.8
20260903163603 35 264 0.0 1.6 0.00 0.00 0.00 58 1015.8
20260903163006 35 261 0.0 1.6 0.00 0.00 0.00 56 1015.9
20260903162508 35 207 0.0 1.6 0.00 0.00 0.00 59 1016.0
20260903162103 35 221 0.0 1.6 0.00 0.00 0.00 57 1016.0
20260903161502 35 189 0.0 1.6 0.00 0.00 0.00 54 1016.0
20260903161009 35 316 0.0 0.0 0.00 0.00 0.00 54 1016.1
20260903160602 35 335 0.0 0.0 0.00 0.00 0.00 56 1016.1
20260903160001 34 352 0.0 0.0 0.00 0.00 0.00 58 1016.2
20260903155509 33 6 0.0 0.0 0.00 0.00 0.00 61 1016.2
20260903155102 33 185 0.0 0.0 0.00 0.00 0.00 59 1016.2
20260903154504 33 205 0.0 1.6 0.00 0.00 0.00 60 1016.2
20260903154015 33 318 0.0 1.6 0.00 0.00 0.00 61 1016.2
20260903153603 32 183 0.0 3.2 0.00 0.00 0.00 69 1016.2
20260903153003 32 1 0.0 0.0 0.00 0.00 0.00 69 1016.3
20260903152509 32 357 0.0 0.0 0.00 0.00 0.00 64 1016.4
20260903152102 31 5 0.0 0.0 0.00 0.00 0.00 71 1016.4
20260903151502 31 346 0.0 0.0 0.00 0.00 0.00 66 1016.4
20260903151008 31 25 0.0 0.0 0.00 0.00 0.00 67 1016.4
20260903150603 30 348 0.0 0.0 0.00 0.00 0.00 74 1016.4
20260903150007 30 269 0.0 0.0 0.00 0.00 0.00 73 1016.4
20260903145508 30 349 0.0 0.0 0.00 0.00 0.00 76 1016.4
20260903145102 29 351 0.0 0.0 0.00 0.00 0.00 76 1016.3
20260903144502 28 10 0.0 0.0 0.00 0.00 0.00 77 1016.3
20260903144009 28 8 0.0 0.0 0.00 0.00 0.00 76 1016.3
20260903143601 28 15 0.0 0.0 0.00 0.00 0.00 77 1016.3
20260903143002 27 348 0.0 1.6 0.00 0.00 0.00 82 1016.3
20260903142508 27 353 0.0 1.6 0.00 0.00 0.00 79 1016.3
20260903142104 27 43 0.0 0.0 0.00 0.00 0.00 84 1016.3
20260903141502 26 197 0.0 0.0 0.00 0.00 0.00 87 1016.3
20260903141010 26 197 0.0 0.0 0.00 0.00 0.00 88 1016.4
20260903140603 26 197 0.0 0.0 0.00 0.00 0.00 90 1016.4
20260903140003 25 195 0.0 0.0 0.00 0.00 0.00 91 1016.4
20260903135509 25 198 0.0 0.0 0.00 0.00 0.00 93 1016.4
20260903135103 25 198 0.0 0.0 0.00 0.00 0.00 94 1016.3
20260903134502 24 198 0.0 0.0 0.00 0.00 0.00 94 1016.4
20260903134008 24 198 0.0 0.0 0.00 0.00 0.00 96 1016.3
20260903133604 23 198 0.0 0.0 0.00 0.00 0.00 97 1016.4
20260903133002 23 198 0.0 0.0 0.00 0.00 0.00 97 1016.3
20260903132512 23 198 0.0 0.0 0.00 0.00 0.00 97 1016.3
20260903132101 23 198 0.0 0.0 0.00 0.00 0.00 97 1016.3
20260903131502 22 198 0.0 0.0 0.00 0.00 0.00 98 1016.4
20260903131009 22 198 0.0 0.0 0.00 0.00 0.00 98 1016.4
20260903130603 22 198 0.0 0.0 0.00 0.00 0.00 98 1016.5
20260903130002 22 198 0.0 0.0 0.00 0.00 0.00 97 1016.5
20260903125509 22 198 0.0 0.0 0.00 0.00 0.00 97 1016.5
20260903125102 21 198 0.0 0.0 0.00 0.00 0.00 97 1016.5
20260903124503 21 198 0.0 0.0 0.00 0.00 0.00 97 1016.5
20260903124008 21 198 0.0 0.0 0.00 0.00 0.00 97 1016.5
20260903123601 21 198 0.0 0.0 0.00 0.00 0.00 97 1016.5
20260903123007 21 198 0.0 0.0 0.00 0.00 0.00 97 1016.5
20260903122508 21 198 0.0 0.0 0.00 0.00 0.00 97 1016.5
20260903122103 21 198 0.0 0.0 0.00 0.00 0.00 97 1016.4
20260903121502 21 198 0.0 0.0 0.00 0.00 0.00 97 1016.4
20260903121012 21 198 0.0 0.0 0.00 0.00 0.00 97 1016.4
20260903120605 21 198 0.0 0.0 0.00 0.00 0.00 96 1016.4
20260903120002 21 198 0.0 0.0 0.00 0.00 0.00 96 1016.4
20260903115508 21 198 0.0 0.0 0.00 0.00 0.00 96 1016.4
20260903115103 21 198 0.0 0.0 0.00 0.00 0.00 96 1016.4
20260903114502 20 198 0.0 0.0 0.00 0.00 0.00 96 1016.3
20260903114009 20 198 0.0 0.0 0.00 0.00 0.00 96 1016.1
20260903113602 21 198 0.0 0.0 0.00 0.00 0.00 96 1016.1
20260903113006 20 198 0.0 0.0 0.00 0.00 0.00 96 1016.1
20260903112508 20 198 0.0 0.0 0.00 0.00 0.00 96 1016.0
20260903112102 20 198 0.0 0.0 0.00 0.00 0.00 96 1016.1
20260903111506 20 198 0.0 0.0 0.00 0.00 0.00 96 1016.1
20260903111008 21 198 0.0 0.0 0.00 0.00 0.00 96 1016.1
20260903110606 21 198 0.0 0.0 0.00 0.00 0.00 96 1016.0
20260903110005 21 198 0.0 0.0 0.00 0.00 0.00 96 1016.0
20260903105514 21 198 0.0 0.0 0.00 0.00 0.00 96 1016.0
20260903105103 21 198 0.0 0.0 0.00 0.00 0.00 96 1015.9
20260903104504 21 198 0.0 0.0 0.00 0.00 0.00 96 1015.8
20260903104010 21 198 0.0 0.0 0.00 0.00 0.00 96 1015.8
20260903103603 21 198 0.0 0.0 0.00 0.00 0.00 96 1015.8
20260903103005 21 198 0.0 0.0 0.00 0.00 0.00 96 1015.7
20260903102510 21 198 0.0 0.0 0.00 0.00 0.00 96 1015.7
20260903102103 21 198 0.0 0.0 0.00 0.00 0.00 96 1015.7
20260903101503 21 198 0.0 0.0 0.00 0.00 0.00 96 1015.7
20260903101009 21 198 0.0 0.0 0.00 0.00 0.00 96 1015.6
20260903100604 21 198 0.0 0.0 0.00 0.00 0.00 95 1015.5
20260903100007 21 198 0.0 0.0 0.00 0.00 0.00 96 1015.4
20260903095510 21 198 0.0 0.0 0.00 0.00 0.00 96 1015.4
20260903095103 21 198 0.0 0.0 0.00 0.00 0.00 95 1015.4
20260903094503 21 198 0.0 0.0 0.00 0.00 0.00 95 1015.4
20260903094010 21 198 0.0 0.0 0.00 0.00 0.00 95 1015.4
20260903093605 21 198 0.0 0.0 0.00 0.00 0.00 95 1015.4
20260903093012 21 198 0.0 0.0 0.00 0.00 0.00 95 1015.4
20260903092510 21 198 0.0 0.0 0.00 0.00 0.00 95 1015.4
20260903092103 21 198 0.0 0.0 0.00 0.00 0.00 95 1015.4
20260903091503 21 198 0.0 0.0 0.00 0.00 0.00 95 1015.4
20260903091009 21 198 0.0 0.0 0.00 0.00 0.00 95 1015.3
20260903090604 21 198 0.0 0.0 0.00 0.00 0.00 95 1015.3
20260903090003 21 198 0.0 0.0 0.00 0.00 0.00 95 1015.4
20260903085510 21 198 0.0 0.0 0.00 0.00 0.00 95 1015.2
20260903085104 21 198 0.0 0.0 0.00 0.00 0.00 95 1015.2
20260903084507 21 198 0.0 0.0 0.00 0.00 0.00 95 1015.2
20260903084010 21 198 0.0 0.0 0.00 0.00 0.00 95 1015.1
20260903083604 21 198 0.0 0.0 0.00 0.00 0.00 95 1015.2
20260903083002 21 198 0.0 0.0 0.00 0.00 0.00 95 1015.0
20260903082509 21 198 0.0 0.0 0.00 0.00 0.00 95 1015.1
20260903082106 21 198 0.0 0.0 0.00 0.00 0.00 95 1015.0
20260903081504 21 198 0.0 0.0 0.00 0.00 0.00 95 1015.1
20260903081011 21 198 0.0 0.0 0.00 0.00 0.00 95 1015.0
20260903080604 21 198 0.0 0.0 0.00 0.00 0.00 95 1015.0
20260903080004 21 198 0.0 0.0 0.00 0.00 0.00 95 1015.0
20260903075510 21 198 0.0 0.0 0.00 0.00 0.00 95 1015.0
20260903075103 21 198 0.0 0.0 0.00 0.00 0.00 95 1015.0
20260903074508 21 198 0.0 0.0 0.00 0.00 0.00 95 1015.0
20260903074015 21 198 0.0 0.0 0.00 0.00 0.00 95 1015.0
20260903073604 21 198 0.0 0.0 0.00 0.00 0.00 95 1015.0
20260903073003 22 198 0.0 0.0 0.00 0.00 0.00 95 1014.9
20260903072509 22 198 0.0 0.0 0.00 0.00 0.00 95 1014.9
20260903072104 22 198 0.0 0.0 0.00 0.00 0.00 94 1015.0
20260903071509 22 198 0.0 0.0 0.00 0.00 0.00 94 1015.1
20260903071011 22 198 0.0 0.0 0.00 0.00 0.00 94 1015.1
20260903070604 22 198 0.0 0.0 0.00 0.00 0.00 94 1015.1
20260903070004 22 198 0.0 0.0 0.00 0.00 0.00 94 1015.1
20260903065511 22 198 0.0 0.0 0.00 0.00 0.00 94 1015.1
20260903065105 22 198 0.0 0.0 0.00 0.00 0.00 94 1015.1
20260903064505 22 198 0.0 0.0 0.00 0.00 0.00 94 1015.0
20260903064009 22 198 0.0 0.0 0.00 0.00 0.00 94 1014.9
20260903063603 22 198 0.0 0.0 0.00 0.00 0.00 94 1014.9
20260903063005 22 198 0.0 0.0 0.00 0.00 0.00 94 1015.0
20260903062512 22 198 0.0 0.0 0.00 0.00 0.00 94 1015.0
20260903062103 22 198 0.0 0.0 0.00 0.00 0.00 94 1015.0
20260903061504 22 198 0.0 0.0 0.00 0.00 0.00 94 1015.0
20260903061013 22 198 0.0 0.0 0.00 0.00 0.00 94 1015.0
20260903060603 22 198 0.0 0.0 0.00 0.00 0.00 94 1015.1
20260903060003 22 198 0.0 0.0 0.00 0.00 0.00 94 1015.0
20260903055510 22 198 0.0 0.0 0.00 0.00 0.00 94 1015.0
20260903055104 22 198 0.0 0.0 0.00 0.00 0.00 94 1015.0
20260903054508 22 198 0.0 0.0 0.00 0.00 0.00 94 1015.1
20260903054010 22 198 0.0 0.0 0.00 0.00 0.00 93 1015.1
20260903053604 22 198 0.0 0.0 0.00 0.00 0.00 93 1015.0
20260903053004 22 198 0.0 0.0 0.00 0.00 0.00 93 1015.0
20260903052511 22 198 0.0 0.0 0.00 0.00 0.00 94 1015.1
20260903052104 22 198 0.0 0.0 0.00 0.00 0.00 93 1015.1
20260903051503 22 198 0.0 0.0 0.00 0.00 0.00 93 1015.1
20260903051011 22 198 0.0 0.0 0.00 0.00 0.00 93 1015.1
20260903050606 22 198 0.0 0.0 0.00 0.00 0.00 93 1015.2
20260903050111 22 198 0.0 0.0 0.00 0.00 0.00 93 1015.1
20260903045510 23 198 0.0 0.0 0.00 0.00 0.00 93 1015.1
20260903045104 23 198 0.0 0.0 0.00 0.00 0.00 93 1015.1
20260903044503 23 198 0.0 0.0 0.00 0.00 0.00 93 1014.9
20260903044009 23 198 0.0 0.0 0.00 0.00 0.00 93 1014.9
20260903043603 23 198 0.0 0.0 0.00 0.00 0.00 93 1014.8
20260903043003 23 198 0.0 0.0 0.00 0.00 0.00 93 1014.9
20260903042511 23 198 0.0 0.0 0.00 0.00 0.00 93 1014.9
20260903042104 23 198 0.0 0.0 0.00 0.00 0.00 93 1015.0
20260903041505 23 198 0.0 0.0 0.00 0.00 0.00 92 1015.0
20260903041005 23 198 0.0 0.0 0.00 0.00 0.00 92 1015.1
20260903040605 23 198 0.0 0.0 0.00 0.00 0.00 92 1015.1
20260903040003 23 198 0.0 0.0 0.00 0.00 0.00 92 1015.0
20260903035510 23 198 0.0 0.0 0.00 0.00 0.00 92 1015.1
20260903035104 23 198 0.0 0.0 0.00 0.00 0.00 92 1015.1
20260903034503 23 198 0.0 0.0 0.00 0.00 0.00 92 1015.1
20260903034010 23 198 0.0 0.0 0.00 0.00 0.00 92 1015.2
20260903033603 23 198 0.0 0.0 0.00 0.00 0.00 91 1015.2
20260903033003 23 198 0.0 0.0 0.00 0.00 0.00 91 1015.2
20260903032509 23 198 0.0 0.0 0.00 0.00 0.00 91 1015.2
20260903032104 23 198 0.0 0.0 0.00 0.00 0.00 91 1015.3
20260903031513 24 198 0.0 0.0 0.00 0.00 0.00 91 1015.3
20260903031010 24 198 0.0 0.0 0.00 0.00 0.00 91 1015.4
20260903030605 24 198 0.0 0.0 0.00 0.00 0.00 91 1015.4
20260903030004 24 198 0.0 0.0 0.00 0.00 0.00 91 1015.4
20260903025509 24 198 0.0 0.0 0.00 0.00 0.00 90 1015.4
20260903025104 24 198 0.0 0.0 0.00 0.00 0.00 90 1015.5
20260903024504 24 198 0.0 0.0 0.00 0.00 0.00 90 1015.6
20260903024010 24 198 0.0 0.0 0.00 0.00 0.00 90 1015.7
20260903023606 24 198 0.0 0.0 0.00 0.00 0.00 90 1015.7
20260903023003 25 198 0.0 0.0 0.00 0.00 0.00 89 1015.7
20260903022511 25 198 0.0 0.0 0.00 0.00 0.00 89 1015.8
20260903022106 25 198 0.0 0.0 0.00 0.00 0.00 89 1015.9
20260903021506 25 198 0.0 0.0 0.00 0.00 0.00 88 1015.8
20260903021014 25 198 0.0 0.0 0.00 0.00 0.00 88 1015.9
20260903020605 25 198 0.0 0.0 0.00 0.00 0.00 87 1015.8
20260903020003 25 198 0.0 0.0 0.00 0.00 0.00 87 1015.8
20260903015509 25 198 0.0 0.0 0.00 0.00 0.00 87 1015.8
20260903015105 25 198 0.0 0.0 0.00 0.00 0.00 86 1015.9
20260903014503 25 198 0.0 0.0 0.00 0.00 0.00 86 1015.8
20260903014009 25 198 0.0 0.0 0.00 0.00 0.00 86 1015.8
20260903013603 25 198 0.0 0.0 0.00 0.00 0.00 86 1015.8
20260903013007 26 198 0.0 0.0 0.00 0.00 0.00 85 1015.8
20260903012511 26 198 0.0 0.0 0.00 0.00 0.00 85 1015.7
20260903012103 26 198 0.0 0.0 0.00 0.00 0.00 85 1015.7
20260903011503 26 198 0.0 0.0 0.00 0.00 0.00 84 1015.6
20260903011010 26 198 0.0 0.0 0.00 0.00 0.00 84 1015.5
20260903010603 26 198 0.0 0.0 0.00 0.00 0.00 83 1015.5
20260903010003 26 198 0.0 0.0 0.00 0.00 0.00 83 1015.4
20260903005509 26 198 0.0 0.0 0.00 0.00 0.00 82 1015.4
20260903005103 26 198 0.0 0.0 0.00 0.00 0.00 82 1015.4
20260903004512 27 198 0.0 0.0 0.00 0.00 0.00 81 1015.4
20260903004009 27 198 0.0 0.0 0.00 0.00 0.00 81 1015.3
20260903003603 27 198 0.0 0.0 0.00 0.00 0.00 80 1015.2
20260903003004 27 198 0.0 0.0 0.00 0.00 0.00 79 1015.1
20260903002509 27 198 0.0 0.0 0.00 0.00 0.00 79 1015.1
20260903002106 27 198 0.0 0.0 0.00 0.00 0.00 78 1015.1
20260903001506 28 198 0.0 0.0 0.00 0.00 0.00 78 1015.0
20260903001011 28 198 0.0 0.0 0.00 0.00 0.00 77 1015.0
20260903000604 28 198 0.0 0.0 0.00 0.00 0.00 76 1015.0
20260903000005 28 198 0.0 0.0 0.00 0.00 0.00 76 1015.0
20260902235512 28 198 0.0 0.0 0.00 0.00 0.00 75 1014.9
20260902235104 28 198 0.0 0.0 0.00 0.00 0.00 74 1014.9
20260902234505 29 198 0.0 0.0 0.00 0.00 0.00 73 1014.9
20260902234009 29 198 0.0 0.0 0.00 0.00 0.00 73 1014.9